FW2423 Weather Reports


time (UTC)temp
C
wind
direction
speed
KPH
gust
KPH
rain 1hr
cm
rain 24hr
cm
rain mn
cm
humidity
%
barometer
mb
20260505040025 9 98 0.0 4.8 0.00 0.10 0.10 50 1002.7
20260505034521 9 124 1.6 6.4 0.00 0.10 0.10 50 1002.6
20260505033021 10 137 1.6 4.8 0.00 0.10 0.10 51 1002.5
20260505031520 10 131 1.6 4.8 0.00 0.10 0.10 53 1002.3
20260505030018 10 214 1.6 4.8 0.00 0.10 0.10 50 1002.3
20260505024518 11 149 0.0 3.2 0.00 0.10 0.10 50 1002.0
20260505023018 12 151 0.0 4.8 0.00 0.10 0.10 47 1001.7
20260505021517 12 158 1.6 4.8 0.00 0.10 0.10 46 1001.3
20260505020017 14 107 0.0 6.4 0.00 0.10 0.10 42 1001.3
20260505014516 15 125 0.0 3.2 0.00 0.10 0.10 39 1001.3
20260505013015 16 131 1.6 9.7 0.00 0.10 0.10 34 1001.1
20260505011517 16 123 1.6 6.4 0.00 0.10 0.10 34 1001.3
20260505010014 16 229 0.0 6.4 0.00 0.10 0.10 34 1001.2
20260505004513 17 32 0.0 3.2 0.00 0.10 0.10 34 1001.3
20260505003020 17 118 0.0 11.3 0.00 0.10 0.10 36 1001.3
20260505001512 17 195 6.4 12.9 0.00 0.10 0.10 35 1001.2
20260505000011 17 72 0.0 3.2 0.00 0.10 0.10 39 1001.2
20260504234511 18 131 0.0 6.4 0.00 0.10 0.10 39 1001.1
20260504233010 17 148 3.2 9.7 0.00 0.10 0.10 41 1001.0
20260504231509 17 89 1.6 8.0 0.00 0.10 0.10 42 1001.0
20260504230009 16 77 8.0 14.5 0.00 0.10 0.10 45 1000.8
20260504224507 15 100 6.4 12.9 0.03 0.10 0.10 52 1001.2
20260504223007 15 103 4.8 16.1 0.03 0.10 0.10 55 1001.3
20260504221510 14 59 4.8 9.7 0.03 0.10 0.10 57 1001.4
20260504220006 13 53 3.2 9.7 0.03 0.10 0.10 62 1001.5
20260504214504 13 128 0.0 8.0 0.05 0.08 0.08 66 1001.8
20260504213003 13 60 6.4 16.1 0.05 0.08 0.08 63 1001.7
20260504211502 13 127 11.3 22.5 0.05 0.08 0.08 61 1001.7
20260504210001 13 122 8.0 16.1 0.05 0.08 0.08 61 1002.1
20260504204619 15 183 0.0 4.8 0.03 0.03 0.03 56 1001.9
20260504203109 16 284 1.6 4.8 0.03 0.03 0.03 47 1002.0
20260504201558 15 38 3.2 6.4 0.03 0.03 0.03 45 1002.0
20260504200058 15 117 0.0 6.4 0.03 0.03 0.03 53 1002.1
20260504194605 16 277 4.8 19.3 0.00 0.00 0.00 49 1002.5
20260504193057 18 198 4.8 16.1 0.00 0.00 0.00 39 1002.2
20260504191554 17 146 6.4 19.3 0.00 0.00 0.00 41 1002.1
20260504190127 18 202 3.2 12.9 0.00 0.00 0.00 38 1002.2
20260504184553 19 269 4.8 12.9 0.00 0.00 0.00 34 1002.3
20260504183050 18 62 3.2 6.4 0.00 0.00 0.00 40 1002.5
20260504180038 17 262 0.0 8.0 0.00 0.00 0.00 41 1002.9
20260504174535 17 310 1.6 9.7 0.00 0.00 0.00 41 1003.2
20260504173035 20 158 1.6 12.9 0.00 0.00 0.00 39 1003.4
20260504171531 17 120 1.6 11.3 0.00 0.00 0.00 40 1003.5
20260504081537 11 107 3.2 9.7 0.00 0.00 0.00 67 1006.3
20260504050008 15 158 6.4 20.9 0.00 0.00 0.00 40 1006.0
20260504044514 16 154 11.3 19.3 0.00 0.00 0.00 38 1005.9
20260504043007 16 122 6.4 27.4 0.00 0.00 0.00 39 1005.7
20260504041506 15 93 9.7 24.1 0.00 0.00 0.00 39 1005.6